Main page
METAR-TAF:

METAR-TAF

Airports :

RAF Topcliffe

Topcliffe, England

latitude: 54-12N, longitude: 001-23W, elevation: 28 m

Current weather observation

The report was made 25 minutes ago, at 04:50 UTC
Wind 9 kt from the South/Southeast
Temperature 14°C
Humidity 94%
Pressure 1008 hPa
Visibility: 9000 m
mist

METAR: EGXZ 190450Z AUTO 16009KT 9000 BR BKN110/// 14/13 Q1008 RERA

Time: 06:15 (05:15 UTC)


TAF: missing

Weather observations and forecasts of more than 4000 airports (METAR and TAF reports).

The available stations are represented by yellow and red dots on the map.

Hover mouse over dot to see the name of the station.

Then click to see weather observations and forecasts.

To change the map : click on the green buttons with a black cross to zoom in, on the green button with a dash to zoom out, or on the green arrows for adjacent maps.


METAR-TAF: